TimeEST,TemperatureF,Dew PointF,Humidity,Sea Level PressureIn,VisibilityMPH,Wind Direction,Wind SpeedMPH,Gust SpeedMPH,PrecipitationIn,Events,Conditions,WindDirDegrees,DateUTC
12:52 AM,27.0,19.0,72,30.09,10.0,Variable,4.6,-,0.00,,Mostly Cloudy,0,2012-11-06 05:52:00
1:52 AM,26.1,15.1,63,30.12,10.0,Variable,4.6,-,N/A,,Partly Cloudy,0,2012-11-06 06:52:00
3:52 AM,25.0,12.9,60,30.13,10.0,Calm,Calm,-,N/A,,Overcast,0,2012-11-06 08:52:00
4:52 AM,25.0,14.0,63,30.15,10.0,Calm,Calm,-,N/A,,Overcast,0,2012-11-06 09:52:00
5:52 AM,25.0,14.0,63,30.16,10.0,WNW,5.8,-,N/A,,Overcast,300,2012-11-06 10:52:00
6:52 AM,25.0,14.0,63,30.18,10.0,Variable,4.6,-,N/A,,Overcast,0,2012-11-06 11:52:00
7:52 AM,26.1,14.0,60,30.19,10.0,Calm,Calm,-,N/A,,Scattered Clouds,0,2012-11-06 12:52:00
8:52 AM,28.9,12.9,51,30.21,10.0,NNW,5.8,-,N/A,,Mostly Cloudy,340,2012-11-06 13:52:00
9:52 AM,30.0,12.0,47,30.21,10.0,North,12.7,18.4,N/A,,Mostly Cloudy,350,2012-11-06 14:52:00
10:52 AM,30.0,12.9,49,30.22,10.0,Variable,6.9,19.6,N/A,,Overcast,0,2012-11-06 15:52:00
11:52 AM,32.0,15.1,50,30.22,10.0,NW,8.1,-,N/A,,Overcast,310,2012-11-06 16:52:00
12:52 PM,33.1,15.1,48,30.21,10.0,West,5.8,-,N/A,,Overcast,270,2012-11-06 17:52:00
1:52 PM,34.0,15.1,46,30.21,10.0,Variable,6.9,-,N/A,,Overcast,0,2012-11-06 18:52:00
2:52 PM,33.1,14.0,46,30.21,10.0,NNW,5.8,-,N/A,,Scattered Clouds,340,2012-11-06 19:52:00
3:52 PM,32.0,12.9,45,30.21,10.0,Calm,Calm,-,N/A,,Clear,0,2012-11-06 20:52:00
4:52 PM,27.0,17.1,66,30.23,10.0,Calm,Calm,-,N/A,,Clear,0,2012-11-06 21:52:00
5:52 PM,25.0,17.1,72,30.24,10.0,Calm,Calm,-,N/A,,Clear,0,2012-11-06 22:52:00
6:52 PM,21.9,17.1,82,30.25,10.0,Calm,Calm,-,N/A,,Clear,0,2012-11-06 23:52:00
7:52 PM,19.0,16.0,88,30.26,10.0,Calm,Calm,-,N/A,,Clear,0,2012-11-07 00:52:00
8:52 PM,17.1,14.0,88,30.27,10.0,Calm,Calm,-,N/A,,Clear,0,2012-11-07 01:52:00
9:52 PM,16.0,12.9,88,30.27,10.0,Calm,Calm,-,N/A,,Clear,0,2012-11-07 02:52:00
10:52 PM,15.1,10.9,84,30.27,10.0,Calm,Calm,-,N/A,,Clear,0,2012-11-07 03:52:00
11:52 PM,16.0,12.0,84,30.25,10.0,Calm,Calm,-,N/A,,Clear,0,2012-11-07 04:52:00